Location: Binningen
(47.7924°N, 8.7261°E)
Time: 08:50:19
(UTC+00:00)

Cosmos 1125 Rocket - Pass Details

Date: 17 May 2021
Orbit: 758 x 779 km, 74.0° (Epoch: 15 June)

Event Time Altitude Azimuth Distance (km) Brightness Sun altitude
Exits shadow 23:07:51 29° 241° (WSW) 1,360 4.5 -22.6°
Maximum altitude 23:10:07 49° 298° (WNW) 982 4.2 -22.6°
Drops below altitude 10° 23:15:11 10° 14° (NNE) 2,301 7.0 -22.6°
Sets 23:17:38 0° 20° (NNE) 3,229 7.9 -22.7°
